Regional Weather Roundup
Issued by NWS

Home | Current Version | Previous Version | Graphics & Text | Print | Product List | Glossary On
Versions: 1 2 3 4 5 6 7 8 9 10 11 12 13 14 15 16 17 18 19 20 21 22 23 24 25 26 27 28 29 30 31 32 33 34 35 36 37 38 39 40 41 42
000
ASUS45 KBOU 230710
RWRCO

WEATHER ROUNDUP FOR COLORADO
NATIONAL WEATHER SERVICE PUEBLO CO
1200 AM MST FRI FEB 23 2018

NOTE: "FAIR" INDICATES FEW OR NO CLOUDS BELOW 12000 FEET WITH NO
SIGNIFICANT WEATHER AND/OR OBSTRUCTIONS TO VISIBILITY.

COZ001>005-013-030-031-230800-
...NORTHWEST COLORADO...

CITY           SKY/WX    TMP DP  RH WIND       PRES   REMARKS
CRAIG          CLOUDY    23  16  74 E6        29.97S WCI  16
HAYDEN         LGT SNOW  19  18  93 E8        29.97F FOG     WCI   9
MEEKER         MOCLDY    19  16  88 NE5       29.95F WCI  12
RABBIT EARS PA NOT AVBL
STEAMBOAT SPGS CLOUDY    19  17  93 E3        29.95S
WALDEN         CLOUDY    16  10  79 SE3       29.93R
$$

COZ006>008-011-230800-
...WEST CENTRAL VALLEYS...

CITY           SKY/WX    TMP DP  RH WIND       PRES   REMARKS
GRAND JUNCTION CLOUDY    28  27  96 SE14      30.00S WCI  17
MONTROSE       CLOUDY    28  16  60 MISG      30.01R
EAGLE          CLOUDY    22  18  85 E5        29.99S FOG     WCI  16
RIFLE          LGT SNOW  26  25  96 SE5       30.00S FOG     WCI  20
DELTA          NOT AVBL
NUCLA          PTSUNNY   27  12  54 SE6       30.03S WCI  20
$$

COZ017>023-064>068-230800-
...SOUTHWEST COLORADO...

CITY           SKY/WX    TMP DP  RH WIND       PRES   REMARKS
DURANGO        PTCLDY    21  15  78 E3        30.03R
CORTEZ         CLOUDY    28   7  41 S12       30.03R WCI  18
PAGOSA SPRINGS FAIR      14  13  94 CALM      30.03S
TELLURIDE      LGT SNOW  18  13  79 E5        29.95S WCI  11
WOLF CREEK PAS CLOUDY     5   3  92 S28G43    29.92R WCI -18
$$

COZ009-010-012-014-032>034-037-058>063-230800-
...CENTRAL COLORADO...

CITY           SKY/WX    TMP DP  RH WIND       PRES   REMARKS
ASPEN          CLOUDY    17  11  77 S3        29.92S
BUENA VISTA    CLOUDY    14   8  77 CALM      29.97R
COPPER MTN     CLOUDY     9   0  66 S10       29.83F WCI  -6
BERTHOUD PASS  FAIR       0 -11  60 SW7G23    29.82S WCI -13
COTTONWOOD PAS CLOUDY    19  12  73 SE3       29.92R
GUNNISON       PTCLDY    15   8  73 NE12      29.98S WCI   2
KREMMLING      LGT SNOW  23  18  80 E6        29.96S WCI  16
LEADVILLE      CLOUDY     5  -1  76 CALM      29.88S
MONARCH PASS     N/A      1  -2  85 SW24      29.95S WCI -22
SALIDA         MOCLDY    21  10  63 NW6       30.06S WCI  13
SUNLIGHT       LGT SNOW   9   5  85 S8        29.91S VSB 1   WCI  -4
WILKERSON PASS PTCLDY     5   1  85 SW8G22    29.90S WCI  -8
$$

COZ069>075-230800-
...SAN LUIS VALLEY/SANGRE DE CRISTO MOUNTAINS...

CITY           SKY/WX    TMP DP  RH WIND       PRES   REMARKS
ALAMOSA        CLEAR     16   8  71 S9        30.01R WCI   4
DEL NORTE      FLURRIES  18  13  84 SW6       30.00R WCI   9
LA VETA PASS   MOCLDY    16   7  67 S23G39    30.04S WCI  -2
SAGUACHE       CLEAR      9   3  78 CALM      30.01S
$$

COZ035-036-038>040-230800-
...NORTHERN COLORADO FRONT RANGE...

CITY           SKY/WX    TMP DP  RH WIND       PRES   REMARKS
DENVER INTL AP PTCLDY    16  13  88 SW7       30.02F FOG     WCI   6
DMNS CITY PARK NOT AVBL
AURORA         PTCLDY    18  17  99 CALM      30.03S
FRONT RANGE AP FAIR      18  16  92 S5        30.04S FOG     WCI  11
ERIE MUNI ARPT FAIR      15  13  92 SW3       30.10S
BOULDER MUN AP FAIR      19  16  86 CALM      30.03S
CENTENNIAL     PTCLDY    17  16  95 SE5       30.01F WCI  10
BROOMFIELD     NOT AVBL
LOVELAND       CLEAR     11   9  92 S5        30.05S FOG     WCI   3
LONGMONT       FAIR      14   9  81 W5        30.07R WCI   6
$$

COZ041-046-047-076>085-087-088-230800-
...PIKES PEAK/PALMER DIVIDE AND SOUTHERN FOOTHILLS...

CITY           SKY/WX    TMP DP  RH WIND       PRES   REMARKS
COLO. SPRINGS  PTCLDY    20  15  81 NW3       30.01R
A. F. ACADEMY  CLEAR     15  12  88 N8        29.99S WCI   4
SCHRIEVER AFB  NOT AVBL
CHEYENNE MTN   NOT AVBL
ELLICOTT         N/A    N/A N/A N/A CALM      30.00S
FALCON         FAIR      16  13  89 N5        30.00S WCI   9
FORT CARSON    CLEAR     20  16  84 CALM      30.01R
LIMON          CLEAR     14  13  95 NW7       30.05R FOG     WCI   4
MONUMENT HILL  MOCLDY    14  12  92 SW5       30.00S WCI   6
CANON CITY     CLEAR     23  19  86 N6        30.02S WCI  16
WALSENBURG     FAIR      30  10  43 W10       30.02R WCI  21
TRINIDAD       CLEAR     27   6  41 CALM      30.02S
$$

COZ042>045-048>051-090-091-230800-
...NORTHEAST COLORADO...

CITY           SKY/WX    TMP DP  RH WIND       PRES   REMARKS
GREELEY ARPT   CLEAR     14  10  84 NW3       30.07F
AKRON          CLOUDY    22  19  89 W5        30.06S WCI  16
BURLINGTON     FOG       22  20  92 SW6       30.09S VSB 1/4 WCI  14
WRAY           FAIR      21  19  93 SW7       30.12R WCI  13
YUMA           NOT AVBL
STERLING       CLOUDY    23  19  86 W5        30.08S WCI  17
HOLYOKE        FAIR      25  21  86 SW3       30.10R
FORT MORGAN    CLOUDY    19  16  86 W6        30.09S WCI  11
$$

COZ086-089-092>099-230800-
...SOUTHEAST COLORADO...

CITY           SKY/WX    TMP DP  RH WIND       PRES   REMARKS
PUEBLO         CLEAR     23  18  81 CALM      30.05S HAZE
LA JUNTA       CLEAR     20  16  84 N9        30.07S WCI   9
LAMAR          CLOUDY    17  12  80 CALM      30.09R
SPRINGFIELD      N/A     22   8  55 SW9       30.04R WCI  12
$$





USA.gov is the U.S. government's official web portal to all federal, state and local government web resources and services.